Tracking 19149 objects as of 21-Apr-2018
HD Live streaming from Space Station
objects crossing your sky now

FENGYUN 1C DEB

Track FENGYUN 1C DEB now!
10-day predictions


NORAD ID: 31620
Int'l Code: 1999-025CAA
Perigee: 826.4 km
Apogee: 871.3 km
Inclination: 99.0 °
Period: 101.8 minutes
Semi major axis: 7219 km
RCS: 0.0107 m2 (small)
Launch date: May 10, 1999
Source: People's Republic of China (PRC)
Launch site: Taiyaun Space Center, China (TSC)

Note: This is SATELLITE DEBRIS
aabbcc
Your satellite tracking list
Your tracking list is empty




NASA's NSSDC Master Catalog

Two Line Element Set (TLE):
1 31620U 99025CAA 18107.26488303 +.00000819 +00000-0 +44304-3 0  9994
2 31620 099.0416 114.1372 0031145 124.0732 236.3403 14.15173994261380
Source of the keplerian elements: AFSPC